STARLINK-34583, 64713

Orbit data source: Space-Track

STARLINK-34583, 64713 is a payload satellite owned by SpaceX/Seattle (US) in LEO that was launched on Sat, 28 Jun 2025 UTC via an FALCON 9 launch vehicle from the Air Force Western Test Range (AFWTR). Payload-class satellites include a variety of spacecraft equipped with specific instruments for various scientific and technological missions. These include communications satellites like Starlink; space stations such as the ISS; scientific satellites like the Hubble; Earth observation satellites from companies like Planet Labs, Umbra, and HawkEye 360; GPS; miniature CubeSats for education and research; and military/defense satellites.

Not visible in the next 10 days
Identifier
64713, 2025-142T
Orbit
LEO
Last TLE update
8 hours ago
Origin
Manufacturer
SpaceX/Seattle
Mission
Operational spacecraft
Bus & Motor
STARLINK V2MO, Unknown motor
Mass
575 kg wet, ~530 kg dry
Launch date (UTC)
2025-06-28 (1 week ago)
Launch vehicle
FALCON 9
Launch site
Air Force Western Test Range (AFWTR)
Object type
Payload
Rocket body
Debris
Shape & HBR
Unknown
Radar Cross Section
RCS unknown

Expand to show TLE details & history

TLE from 8 hours ago
0 STARLINK-34583
1 64713U 25142T   25186.58335648 -.01223542  00000-0 -49213-2 0  9991
2 64713  69.9945 231.3104 0003894 277.5916  70.5564 15.88929462  1978
Epoch: 2025-07-05T14:00Z
TLE epoch observation values (Epoch: 2025-07-05T14:00:01.999Z)
Latitude
-11.27009°
Longitude
93.3457°
Altitude
309.077 km
Speed
7.723 km/s
True Right ascension
15h 08m 41s
True Declination
-11° 11' 60"
Sunlit
Object was in full shadow at epoch
Visualization orbit readout
Latitude
25.02634°
Longitude
-93.24089°
Altitude
311.891 km
Speed
7.723 km/s
Apparent Right ascension
00h 43m 08s
Apparent Declination
-7° 50' 42"
Sunlit
Object is in daylight
Visualization observer readout
Local Sidereal Time
10:11:12
Azimuth
303.029° NW
Elevation
-43.352°
Doppler factor
1
Orbital elements
Apogee altitude
305.751 km
Perigee altitude
300.548 km
Semi-major axis
6,681.287 km
Eccentricity
0.00039
Inclination
69.9945°
RAAN
231.3104°
Arg. of periapsis
277.5916°
True anomaly
Unknown
Mean anomaly
70.5564°
Eccentric anomaly
Unknown
Mean motion
3.97423 °/min
Orbital period
90.58 mins
BSTAR
-0.0049213
Loading maneuver chart data...
Loading SW <> Apogee altitude chart data...
Loading historical data...
Loading historical data...
Loading historical data...
Loading historical data...
Loading historical data...
Loading historical data...
Loading historical data...

STARLINK-34583 Visibility

Observer location: undefined°, undefined°

STARLINK-34583 is likely not visible in the next few days
Span
Click to sort rows by Start time (UTC) header in descending order
Start Az.
Max El. time (UTC)
Max El. Az.
Max El.
End time (UTC)
End Az.
|